Tracking 30306 objects as of 24-Apr-2025
HD Live streaming from Space Station
objects crossing your sky now

THORAD DELTA 1 DEB

Track THORAD DELTA 1 DEB now!
10-day predictions


NORAD ID: 8152
Int'l Code: 1974-089S
Perigee: 1,382.4 km
Apogee: 1,477.1 km
Inclination: 101.8 °
Period: 114.3 minutes
Semi major axis: 7800 km
RCS: 0.0989 m2 (small)
Launch date: November 15, 1974
Source: United States (US)
Launch site: AIR FORCE WESTERN TEST RANGE (AFWTR)

Note: This is SATELLITE DEBRIS
Your satellite tracking list
Your tracking list is empty




NASA's NSSDC Master Catalog

Two Line Element Set (TLE):
1 08152U 74089S   25112.88177412  .00000060  00000-0  60567-3 0  9996
2 08152 101.8432 112.1234 0060663  89.9612  26.2418 12.60077212317740
Source of the keplerian elements: AFSPC